Location: Stavanger
(58.9670°N, 5.7500°E)
Time: 00:35:48
(UTC+02:00)

ISS - Pass Details

Date: 30 March 2019
Orbit: 408 x 410 km, 51.6° (Epoch: 18 April)

Event Time Altitude Azimuth Distance (km) Brightness Sun altitude
Rises 20:49:07 0° 257° (WSW) 2,340 0.8 -12.3°
Reaches altitude 10° 20:51:30 10° 241° (WSW) 1,477 -0.6 -12.6°
Maximum altitude 20:54:06 21° 189° (S) 970 -2.1 -12.9°
Enters shadow 20:55:14 18° 160° (SSE) 1,085 -2.1 -13.0°
